Time,TemperatureF,DewpointF,PressureIn,WindDirection,WindDirectionDegrees,WindSpeedMPH,WindSpeedGustMPH,Humidity,HourlyPrecipIn,Conditions,Clouds,dailyrainin,SoftwareType,DateUTC
2013-07-28 00:03:00,73.2,71.7,29.80,WSW,237,0.0,7.0,95,0.00,,,0.47,Wunderground v.1.15,2013-07-28 05:03:00,
2013-07-28 00:08:00,73.2,71.7,29.80,WSW,237,0.0,1.0,95,0.00,,,0.47,Wunderground v.1.15,2013-07-28 05:08:00,
2013-07-28 00:13:00,73.2,72.0,29.80,WSW,248,0.0,1.0,96,0.00,,,0.47,Wunderground v.1.15,2013-07-28 05:13:00,
2013-07-28 00:18:00,73.2,71.7,29.80,WSW,248,0.0,0.0,95,0.00,,,0.47,Wunderground v.1.15,2013-07-28 05:18:00,
2013-07-28 00:23:00,73.2,72.0,29.80,WSW,248,0.0,0.0,96,0.00,,,0.47,Wunderground v.1.15,2013-07-28 05:23:00,
2013-07-28 00:28:00,73.3,71.8,29.80,WSW,248,0.0,0.0,95,0.00,,,0.00,Wunderground v.1.15,2013-07-28 05:28:00,
2013-07-28 00:33:00,73.3,71.8,29.80,WSW,248,0.0,1.0,95,0.00,,,0.00,Wunderground v.1.15,2013-07-28 05:33:00,
2013-07-28 00:38:00,73.3,72.1,29.80,WSW,248,0.0,1.0,96,0.00,,,0.00,Wunderground v.1.15,2013-07-28 05:38:00,
2013-07-28 00:43:00,73.3,71.8,29.80,WSW,248,0.0,1.0,95,0.00,,,0.00,Wunderground v.1.15,2013-07-28 05:43:00,
2013-07-28 00:48:00,73.3,72.1,29.80,WSW,248,0.0,1.0,96,0.00,,,0.00,Wunderground v.1.15,2013-07-28 05:48:00,
2013-07-28 00:53:00,73.3,72.1,29.80,WSW,248,0.0,1.0,96,0.00,,,0.00,Wunderground v.1.15,2013-07-28 05:53:00,
2013-07-28 00:58:00,73.3,72.1,29.80,WSW,248,0.0,1.0,96,0.00,,,0.00,Wunderground v.1.15,2013-07-28 05:58:00,
2013-07-28 01:03:00,73.3,72.1,29.80,WSW,248,0.0,1.0,96,0.00,,,0.00,Wunderground v.1.15,2013-07-28 06:03:00,
2013-07-28 01:08:00,73.2,72.0,29.80,WSW,248,0.0,1.0,96,0.00,,,0.00,Wunderground v.1.15,2013-07-28 06:08:00,
2013-07-28 01:13:00,73.2,72.0,29.79,NNW,342,0.0,1.0,96,0.00,,,0.00,Wunderground v.1.15,2013-07-28 06:13:00,
2013-07-28 01:18:00,73.1,71.9,29.79,NNW,343,0.0,1.0,96,0.00,,,0.00,Wunderground v.1.15,2013-07-28 06:18:00,
2013-07-28 01:28:00,73.0,71.8,29.78,NNE,13,0.0,1.0,96,0.00,,,0.00,Wunderground v.1.15,2013-07-28 06:28:00,
2013-07-28 01:33:00,73.0,71.8,29.78,NNE,26,0.0,1.0,96,0.00,,,0.00,Wunderground v.1.15,2013-07-28 06:33:00,
2013-07-28 01:38:00,72.9,71.4,29.78,NNE,25,0.0,1.0,95,0.00,,,0.00,Wunderground v.1.15,2013-07-28 06:38:00,
2013-07-28 01:43:00,72.8,71.3,29.78,NNE,32,0.0,1.0,95,0.00,,,0.00,Wunderground v.1.15,2013-07-28 06:43:00,
2013-07-28 01:48:00,72.8,71.3,29.78,NNE,16,1.0,1.0,95,0.00,,,0.00,Wunderground v.1.15,2013-07-28 06:48:00,
2013-07-28 01:53:00,72.8,71.3,29.78,North,10,1.0,1.0,95,0.00,,,0.00,Wunderground v.1.15,2013-07-28 06:53:00,
2013-07-28 01:58:00,72.8,71.3,29.79,West,265,1.0,3.0,95,0.00,,,0.00,Wunderground v.1.15,2013-07-28 06:58:00,
2013-07-28 02:03:00,72.7,71.2,29.79,NNW,334,1.0,3.0,95,0.00,,,0.00,Wunderground v.1.15,2013-07-28 07:03:00,
2013-07-28 02:08:00,72.6,71.1,29.79,NNE,17,1.0,1.0,95,0.00,,,0.00,Wunderground v.1.15,2013-07-28 07:08:00,
2013-07-28 02:13:00,72.5,71.0,29.79,NNE,20,0.0,1.0,95,0.00,,,0.00,Wunderground v.1.15,2013-07-28 07:13:00,
2013-07-28 02:18:00,72.5,71.0,29.79,NNE,19,0.0,1.0,95,0.00,,,0.00,Wunderground v.1.15,2013-07-28 07:18:00,
2013-07-28 02:23:00,72.4,70.9,29.79,NNE,20,0.0,1.0,95,0.00,,,0.00,Wunderground v.1.15,2013-07-28 07:23:00,
2013-07-28 02:28:00,72.3,70.8,29.79,NNE,19,0.0,1.0,95,0.00,,,0.00,Wunderground v.1.15,2013-07-28 07:28:00,
2013-07-28 02:33:00,72.3,70.8,29.79,NNE,19,0.0,1.0,95,0.00,,,0.00,Wunderground v.1.15,2013-07-28 07:33:00,
2013-07-28 02:38:00,72.2,71.0,29.79,NNE,19,0.0,1.0,96,0.00,,,0.00,Wunderground v.1.15,2013-07-28 07:38:00,
2013-07-28 02:43:00,72.2,70.7,29.78,NE,37,0.0,1.0,95,0.00,,,0.00,Wunderground v.1.15,2013-07-28 07:43:00,
2013-07-28 02:48:00,72.2,70.7,29.78,NE,37,0.0,1.0,95,0.00,,,0.00,Wunderground v.1.15,2013-07-28 07:48:00,
2013-07-28 02:53:00,72.1,70.6,29.78,NE,37,0.0,1.0,95,0.00,,,0.00,Wunderground v.1.15,2013-07-28 07:53:00,
2013-07-28 02:58:00,72.0,70.5,29.78,NE,37,0.0,1.0,95,0.00,,,0.00,Wunderground v.1.15,2013-07-28 07:58:00,
2013-07-28 03:03:00,72.0,70.5,29.78,NE,37,0.0,1.0,95,0.00,,,0.00,Wunderground v.1.15,2013-07-28 08:03:00,
2013-07-28 03:08:00,72.0,70.5,29.78,NE,37,0.0,1.0,95,0.00,,,0.00,Wunderground v.1.15,2013-07-28 08:08:00,
2013-07-28 03:13:00,72.0,70.5,29.79,NE,37,0.0,1.0,95,0.00,,,0.00,Wunderground v.1.15,2013-07-28 08:13:00,
2013-07-28 03:18:00,72.0,70.5,29.79,NE,37,0.0,1.0,95,0.00,,,0.00,Wunderground v.1.15,2013-07-28 08:18:00,
2013-07-28 03:23:00,72.0,70.5,29.79,NE,37,0.0,1.0,95,0.00,,,0.00,Wunderground v.1.15,2013-07-28 08:23:00,
2013-07-28 03:28:00,71.9,70.4,29.79,NE,37,0.0,1.0,95,0.00,,,0.00,Wunderground v.1.15,2013-07-28 08:28:00,
2013-07-28 03:33:00,71.9,70.7,29.79,NE,37,0.0,1.0,96,0.00,,,0.00,Wunderground v.1.15,2013-07-28 08:33:00,
2013-07-28 03:38:00,71.7,70.5,29.79,NE,37,0.0,1.0,96,0.00,,,0.00,Wunderground v.1.15,2013-07-28 08:38:00,
2013-07-28 03:43:00,71.6,70.4,29.79,NE,37,0.0,1.0,96,0.00,,,0.00,Wunderground v.1.15,2013-07-28 08:43:00,
2013-07-28 03:48:00,71.6,70.4,29.79,NE,37,0.0,1.0,96,0.00,,,0.00,Wunderground v.1.15,2013-07-28 08:48:00,
2013-07-28 03:53:00,71.6,70.4,29.79,NNE,31,0.0,1.0,96,0.00,,,0.00,Wunderground v.1.15,2013-07-28 08:53:00,
2013-07-28 03:58:00,71.6,70.4,29.80,NNE,30,1.0,1.0,96,0.00,,,0.00,Wunderground v.1.15,2013-07-28 08:58:00,
2013-07-28 04:03:00,71.6,70.4,29.80,NE,34,1.0,1.0,96,0.00,,,0.00,Wunderground v.1.15,2013-07-28 09:03:00,
2013-07-28 04:08:00,71.5,70.3,29.80,NE,34,1.0,2.0,96,0.00,,,0.00,Wunderground v.1.15,2013-07-28 09:08:00,
2013-07-28 04:13:00,71.5,70.3,29.81,NE,40,1.0,2.0,96,0.00,,,0.00,Wunderground v.1.15,2013-07-28 09:13:00,
2013-07-28 04:18:00,71.5,70.3,29.81,NE,40,1.0,1.0,96,0.00,,,0.00,Wunderground v.1.15,2013-07-28 09:18:00,
2013-07-28 04:23:00,71.5,70.3,29.81,NNE,30,1.0,1.0,96,0.00,,,0.00,Wunderground v.1.15,2013-07-28 09:23:00,
2013-07-28 04:28:00,71.5,70.3,29.81,NNE,30,1.0,2.0,96,0.00,,,0.00,Wunderground v.1.15,2013-07-28 09:28:00,
2013-07-28 04:33:00,71.5,70.3,29.81,NNE,22,1.0,2.0,96,0.00,,,0.00,Wunderground v.1.15,2013-07-28 09:33:00,
2013-07-28 04:38:00,71.5,70.3,29.81,NNE,27,1.0,2.0,96,0.00,,,0.00,Wunderground v.1.15,2013-07-28 09:38:00,
2013-07-28 04:43:00,71.4,70.2,29.81,North,360,1.0,2.0,96,0.00,,,0.00,Wunderground v.1.15,2013-07-28 09:43:00,
2013-07-28 04:48:00,71.4,69.9,29.81,North,360,1.0,1.0,95,0.00,,,0.00,Wunderground v.1.15,2013-07-28 09:48:00,
2013-07-28 04:53:00,71.4,69.9,29.81,NNE,12,1.0,1.0,95,0.00,,,0.00,Wunderground v.1.15,2013-07-28 09:53:00,
2013-07-28 04:58:00,71.4,69.9,29.82,North,11,1.0,1.0,95,0.00,,,0.00,Wunderground v.1.15,2013-07-28 09:58:00,
2013-07-28 05:03:00,71.4,69.9,29.82,NNE,14,1.0,1.0,95,0.00,,,0.00,Wunderground v.1.15,2013-07-28 10:03:00,
2013-07-28 05:13:00,71.3,69.8,29.82,NE,56,1.0,2.0,95,0.00,,,0.00,Wunderground v.1.15,2013-07-28 10:13:00,
2013-07-28 05:23:00,71.3,69.8,29.82,North,355,1.0,1.0,95,0.00,,,0.00,Wunderground v.1.15,2013-07-28 10:23:00,
2013-07-28 05:28:00,71.3,69.8,29.83,North,5,1.0,1.0,95,0.00,,,0.00,Wunderground v.1.15,2013-07-28 10:28:00,
2013-07-28 05:33:00,71.3,69.8,29.83,North,350,1.0,3.0,95,0.00,,,0.00,Wunderground v.1.15,2013-07-28 10:33:00,
2013-07-28 05:43:00,71.2,69.7,29.83,ENE,61,1.0,2.0,95,0.00,,,0.00,Wunderground v.1.15,2013-07-28 10:43:00,
2013-07-28 05:48:00,71.1,69.6,29.83,NNW,327,1.0,3.0,95,0.00,,,0.00,Wunderground v.1.15,2013-07-28 10:48:00,
2013-07-28 05:53:00,71.2,69.7,29.83,NW,325,0.0,3.0,95,0.00,,,0.00,Wunderground v.1.15,2013-07-28 10:53:00,
2013-07-28 05:58:00,71.2,69.7,29.83,NW,325,1.0,1.0,95,0.00,,,0.00,Wunderground v.1.15,2013-07-28 10:58:00,
2013-07-28 06:03:00,71.2,69.7,29.83,NNE,26,0.0,3.0,95,0.00,,,0.00,Wunderground v.1.15,2013-07-28 11:03:00,
2013-07-28 06:08:00,71.2,69.7,29.83,NNE,14,1.0,3.0,95,0.00,,,0.00,Wunderground v.1.15,2013-07-28 11:08:00,
2013-07-28 06:13:00,71.3,69.8,29.84,NNE,15,1.0,3.0,95,0.00,,,0.00,Wunderground v.1.15,2013-07-28 11:13:00,
2013-07-28 06:18:00,71.3,69.8,29.84,North,5,1.0,3.0,95,0.00,,,0.00,Wunderground v.1.15,2013-07-28 11:18:00,
2013-07-28 06:23:00,71.3,69.8,29.84,NNE,32,1.0,3.0,95,0.00,,,0.00,Wunderground v.1.15,2013-07-28 11:23:00,
2013-07-28 06:28:00,71.3,69.8,29.83,NNE,32,1.0,1.0,95,0.00,,,0.00,Wunderground v.1.15,2013-07-28 11:28:00,
2013-07-28 06:33:00,71.3,69.8,29.83,North,5,1.0,3.0,95,0.00,,,0.00,Wunderground v.1.15,2013-07-28 11:33:00,
2013-07-28 06:38:00,71.3,69.8,29.83,North,5,0.0,3.0,95,0.00,,,0.00,Wunderground v.1.15,2013-07-28 11:38:00,
2013-07-28 06:43:00,71.3,69.8,29.84,NNW,341,0.0,3.0,95,0.00,,,0.00,Wunderground v.1.15,2013-07-28 11:43:00,
2013-07-28 06:48:00,71.3,69.8,29.84,North,11,0.0,3.0,95,0.00,,,0.00,Wunderground v.1.15,2013-07-28 11:48:00,
2013-07-28 06:53:00,71.3,69.8,29.84,NNE,12,0.0,3.0,95,0.00,,,0.00,Wunderground v.1.15,2013-07-28 11:53:00,
2013-07-28 06:58:00,71.3,69.8,29.83,NW,311,0.0,3.0,95,0.00,,,0.00,Wunderground v.1.15,2013-07-28 11:58:00,
2013-07-28 07:03:00,71.3,69.8,29.83,West,271,0.0,3.0,95,0.00,,,0.00,Wunderground v.1.15,2013-07-28 12:03:00,
2013-07-28 07:08:00,71.3,69.8,29.83,NW,306,0.0,3.0,95,0.00,,,0.00,Wunderground v.1.15,2013-07-28 12:08:00,
2013-07-28 07:13:00,71.4,69.9,29.84,NNE,24,1.0,3.0,95,0.00,,,0.00,Wunderground v.1.15,2013-07-28 12:13:00,
2013-07-28 07:18:00,71.5,70.0,29.84,North,360,1.0,3.0,95,0.00,,,0.00,Wunderground v.1.15,2013-07-28 12:18:00,
2013-07-28 07:23:00,71.6,70.1,29.84,West,273,1.0,3.0,95,0.00,,,0.00,Wunderground v.1.15,2013-07-28 12:23:00,
2013-07-28 07:28:00,71.7,70.2,29.84,NNE,33,1.0,3.0,95,0.00,,,0.00,Wunderground v.1.15,2013-07-28 12:28:00,
2013-07-28 07:33:00,71.8,70.3,29.84,NNE,12,2.0,3.0,95,0.00,,,0.00,Wunderground v.1.15,2013-07-28 12:33:00,
2013-07-28 07:38:00,72.0,70.5,29.84,NNE,15,2.0,2.0,95,0.00,,,0.00,Wunderground v.1.15,2013-07-28 12:38:00,
2013-07-28 07:43:00,72.1,70.6,29.84,West,269,2.0,3.0,95,0.00,,,0.00,Wunderground v.1.15,2013-07-28 12:43:00,
2013-07-28 07:48:00,72.2,70.7,29.84,NW,319,2.0,3.0,95,0.00,,,0.00,Wunderground v.1.15,2013-07-28 12:48:00,
2013-07-28 07:53:00,72.4,70.9,29.84,NNE,14,2.0,3.0,95,0.00,,,0.00,Wunderground v.1.15,2013-07-28 12:53:00,
2013-07-28 07:58:00,72.5,70.7,29.84,NNE,28,2.0,2.0,94,0.00,,,0.00,Wunderground v.1.15,2013-07-28 12:58:00,
2013-07-28 08:03:00,72.6,70.8,29.84,NNE,26,3.0,3.0,94,0.00,,,0.00,Wunderground v.1.15,2013-07-28 13:03:00,
2013-07-28 08:08:00,72.6,70.5,29.84,NE,40,2.0,4.0,93,0.00,,,0.00,Wunderground v.1.15,2013-07-28 13:08:00,
2013-07-28 08:13:00,72.6,70.5,29.84,NNE,19,3.0,4.0,93,0.00,,,0.00,Wunderground v.1.15,2013-07-28 13:13:00,
2013-07-28 08:18:00,72.6,70.5,29.84,North,360,3.0,4.0,93,0.00,,,0.00,Wunderground v.1.15,2013-07-28 13:18:00,
2013-07-28 08:23:00,72.6,70.1,29.84,NNE,28,3.0,4.0,92,0.00,,,0.00,Wunderground v.1.15,2013-07-28 13:23:00,
2013-07-28 08:28:00,72.5,70.0,29.84,NNE,30,3.0,3.0,92,0.00,,,0.00,Wunderground v.1.15,2013-07-28 13:28:00,
2013-07-28 08:33:00,72.5,70.0,29.84,North,10,3.0,3.0,92,0.00,,,0.00,Wunderground v.1.15,2013-07-28 13:33:00,
2013-07-28 08:38:00,72.6,70.1,29.84,NNE,26,3.0,4.0,92,0.00,,,0.00,Wunderground v.1.15,2013-07-28 13:38:00,
2013-07-28 08:43:00,72.7,70.2,29.85,North,355,3.0,4.0,92,0.00,,,0.00,Wunderground v.1.15,2013-07-28 13:43:00,
2013-07-28 08:48:00,72.8,70.3,29.85,NNE,13,3.0,4.0,92,0.00,,,0.00,Wunderground v.1.15,2013-07-28 13:48:00,
2013-07-28 08:53:00,73.0,70.5,29.85,ENE,59,2.0,4.0,92,0.00,,,0.00,Wunderground v.1.15,2013-07-28 13:53:00,
2013-07-28 08:58:00,73.1,70.3,29.86,NE,48,1.0,3.0,91,0.00,,,0.00,Wunderground v.1.15,2013-07-28 13:58:00,
2013-07-28 09:03:00,73.2,70.4,29.86,NE,34,1.0,3.0,91,0.00,,,0.00,Wunderground v.1.15,2013-07-28 14:03:00,
2013-07-28 09:08:00,73.5,70.7,29.86,NNE,33,1.0,1.0,91,0.00,,,0.00,Wunderground v.1.15,2013-07-28 14:08:00,
2013-07-28 09:13:00,73.8,71.0,29.86,NNW,341,1.0,3.0,91,0.00,,,0.00,Wunderground v.1.15,2013-07-28 14:13:00,
2013-07-28 09:18:00,74.2,71.1,29.86,NE,38,1.0,3.0,90,0.00,,,0.00,Wunderground v.1.15,2013-07-28 14:18:00,
2013-07-28 09:23:00,74.6,71.1,29.86,NW,325,1.0,3.0,89,0.00,,,0.00,Wunderground v.1.15,2013-07-28 14:23:00,
2013-07-28 09:28:00,74.9,71.1,29.86,ENE,74,1.0,3.0,88,0.00,,,0.00,Wunderground v.1.15,2013-07-28 14:28:00,
2013-07-28 09:33:00,75.3,71.5,29.86,NE,37,1.0,3.0,88,0.00,,,0.00,Wunderground v.1.15,2013-07-28 14:33:00,
2013-07-28 09:38:00,75.4,71.3,29.86,ENE,69,2.0,3.0,87,0.00,,,0.00,Wunderground v.1.15,2013-07-28 14:38:00,
2013-07-28 09:43:00,75.6,71.5,29.87,NE,42,2.0,3.0,87,0.00,,,0.00,Wunderground v.1.15,2013-07-28 14:43:00,
2013-07-28 09:48:00,75.9,71.1,29.87,NE,37,1.0,1.0,85,0.00,,,0.00,Wunderground v.1.15,2013-07-28 14:48:00,
2013-07-28 09:53:00,76.2,71.7,29.87,NW,325,1.0,3.0,86,0.00,,,0.00,Wunderground v.1.15,2013-07-28 14:53:00,
2013-07-28 09:58:00,76.4,71.6,29.87,NW,325,1.0,1.0,85,0.00,,,0.00,Wunderground v.1.15,2013-07-28 14:58:00,
2013-07-28 10:03:00,76.6,71.7,29.87,WNW,289,1.0,3.0,85,0.00,,,0.00,Wunderground v.1.15,2013-07-28 15:03:00,
2013-07-28 10:08:00,76.9,71.3,29.87,NE,44,1.0,1.0,83,0.00,,,0.00,Wunderground v.1.15,2013-07-28 15:08:00,
2013-07-28 10:13:00,77.2,71.6,29.88,NE,44,1.0,3.0,83,0.00,,,0.00,Wunderground v.1.15,2013-07-28 15:13:00,
2013-07-28 10:18:00,77.4,71.8,29.88,NE,36,0.0,3.0,83,0.00,,,0.00,Wunderground v.1.15,2013-07-28 15:18:00,
2013-07-28 10:23:00,77.6,71.7,29.88,North,355,0.0,3.0,82,0.00,,,0.00,Wunderground v.1.15,2013-07-28 15:23:00,
2013-07-28 10:28:00,77.7,72.1,29.89,NNW,340,1.0,1.0,83,0.00,,,0.00,Wunderground v.1.15,2013-07-28 15:28:00,
2013-07-28 10:33:00,78.1,72.5,29.89,NE,42,0.0,3.0,83,0.00,,,0.00,Wunderground v.1.15,2013-07-28 15:33:00,
2013-07-28 10:38:00,79.0,73.4,29.89,NW,311,0.0,3.0,83,0.00,,,0.00,Wunderground v.1.15,2013-07-28 15:38:00,
2013-07-28 10:43:00,79.3,72.2,29.89,NNE,21,1.0,3.0,79,0.00,,,0.00,Wunderground v.1.15,2013-07-28 15:43:00,
2013-07-28 10:48:00,79.5,72.8,29.89,NNE,26,1.0,3.0,80,0.00,,,0.00,Wunderground v.1.15,2013-07-28 15:48:00,
2013-07-28 10:53:00,79.7,73.0,29.89,West,276,1.0,3.0,80,0.00,,,0.00,Wunderground v.1.15,2013-07-28 15:53:00,
2013-07-28 10:58:00,80.0,72.5,29.89,NE,38,1.0,3.0,78,0.00,,,0.00,Wunderground v.1.15,2013-07-28 15:58:00,
2013-07-28 11:03:00,80.2,72.7,29.89,SE,146,1.0,3.0,78,0.00,,,0.00,Wunderground v.1.15,2013-07-28 16:03:00,
2013-07-28 11:08:00,80.4,73.3,29.89,ENE,63,1.0,3.0,79,0.00,,,0.00,Wunderground v.1.15,2013-07-28 16:08:00,
2013-07-28 11:13:00,80.6,73.1,29.89,East,83,1.0,3.0,78,0.00,,,0.00,Wunderground v.1.15,2013-07-28 16:13:00,
2013-07-28 11:18:00,81.0,73.1,29.89,East,94,1.0,3.0,77,0.00,,,0.00,Wunderground v.1.15,2013-07-28 16:18:00,
2013-07-28 11:23:00,81.8,73.1,29.89,NE,52,1.0,6.0,75,0.00,,,0.00,Wunderground v.1.15,2013-07-28 16:23:00,
2013-07-28 11:28:00,81.9,74.0,29.89,NE,44,2.0,2.0,77,0.00,,,0.00,Wunderground v.1.15,2013-07-28 16:28:00,
2013-07-28 11:33:00,82.2,73.1,29.89,ENE,57,2.0,3.0,74,0.00,,,0.00,Wunderground v.1.15,2013-07-28 16:33:00,
2013-07-28 11:38:00,81.8,72.7,29.89,NE,44,2.0,3.0,74,0.00,,,0.00,Wunderground v.1.15,2013-07-28 16:38:00,
2013-07-28 11:43:00,81.3,73.0,29.89,NNE,28,2.0,3.0,76,0.00,,,0.00,Wunderground v.1.15,2013-07-28 16:43:00,
2013-07-28 11:48:00,81.0,73.1,29.89,NE,40,2.0,3.0,77,0.00,,,0.00,Wunderground v.1.15,2013-07-28 16:48:00,
2013-07-28 11:53:00,81.0,73.1,29.89,NNE,20,2.0,3.0,77,0.00,,,0.00,Wunderground v.1.15,2013-07-28 16:53:00,
2013-07-28 11:58:00,81.1,73.6,29.88,East,90,2.0,2.0,78,0.00,,,0.00,Wunderground v.1.15,2013-07-28 16:58:00,
2013-07-28 12:03:00,81.4,73.5,29.88,North,360,2.0,3.0,77,0.00,,,0.00,Wunderground v.1.15,2013-07-28 17:03:00,
2013-07-28 12:13:00,81.9,73.6,29.88,ENE,60,3.0,4.0,76,0.00,,,0.00,Wunderground v.1.15,2013-07-28 17:13:00,
2013-07-28 12:18:00,81.5,73.2,29.88,NNE,28,4.0,6.0,76,0.00,,,0.00,Wunderground v.1.15,2013-07-28 17:18:00,
2013-07-28 12:23:00,81.0,73.1,29.88,ENE,74,3.0,6.0,77,0.00,,,0.00,Wunderground v.1.15,2013-07-28 17:23:00,
2013-07-28 12:28:00,80.9,73.4,29.88,NE,42,2.0,3.0,78,0.00,,,0.00,Wunderground v.1.15,2013-07-28 17:28:00,
2013-07-28 12:33:00,81.1,73.6,29.88,NE,42,2.0,3.0,78,0.00,,,0.00,Wunderground v.1.15,2013-07-28 17:33:00,
2013-07-28 12:38:00,81.1,73.6,29.88,NE,46,2.0,3.0,78,0.00,,,0.00,Wunderground v.1.15,2013-07-28 17:38:00,
2013-07-28 12:43:00,81.0,73.5,29.88,NNE,30,3.0,4.0,78,0.00,,,0.00,Wunderground v.1.15,2013-07-28 17:43:00,
2013-07-28 12:48:00,81.1,73.6,29.88,NE,45,3.0,3.0,78,0.00,,,0.00,Wunderground v.1.15,2013-07-28 17:48:00,
2013-07-28 12:53:00,81.9,74.0,29.88,ESE,105,2.0,3.0,77,0.00,,,0.00,Wunderground v.1.15,2013-07-28 17:53:00,
2013-07-28 12:58:00,82.4,73.7,29.88,ENE,63,2.0,2.0,75,0.00,,,0.00,Wunderground v.1.15,2013-07-28 17:58:00,
2013-07-28 13:03:00,82.7,73.6,29.88,ENE,61,3.0,4.0,74,0.00,,,0.00,Wunderground v.1.15,2013-07-28 18:03:00,
2013-07-28 13:08:00,83.7,74.5,29.88,NNE,26,3.0,3.0,74,0.00,,,0.00,Wunderground v.1.15,2013-07-28 18:08:00,
2013-07-28 13:13:00,85.1,75.1,29.87,NW,314,2.0,3.0,72,0.00,,,0.00,Wunderground v.1.15,2013-07-28 18:13:00,
2013-07-28 13:18:00,86.2,75.3,29.87,ENE,65,1.0,3.0,70,0.00,,,0.00,Wunderground v.1.15,2013-07-28 18:18:00,
2013-07-28 13:23:00,86.8,74.1,29.87,NE,48,2.0,4.0,66,0.00,,,0.00,Wunderground v.1.15,2013-07-28 18:23:00,
2013-07-28 13:28:00,86.9,74.2,29.87,ENE,57,2.0,3.0,66,0.00,,,0.00,Wunderground v.1.15,2013-07-28 18:28:00,
2013-07-28 13:33:00,87.6,75.3,29.87,NE,35,2.0,3.0,67,0.00,,,0.00,Wunderground v.1.15,2013-07-28 18:33:00,
2013-07-28 13:38:00,86.7,73.5,29.87,ENE,57,2.0,3.0,65,0.00,,,0.00,Wunderground v.1.15,2013-07-28 18:38:00,
2013-07-28 13:43:00,86.0,74.6,29.87,NE,55,3.0,3.0,69,0.00,,,0.00,Wunderground v.1.15,2013-07-28 18:43:00,
2013-07-28 13:48:00,86.8,74.5,29.87,NE,45,2.0,3.0,67,0.00,,,0.00,Wunderground v.1.15,2013-07-28 18:48:00,
2013-07-28 13:53:00,87.0,74.3,29.87,NNE,17,2.0,3.0,66,0.00,,,0.00,Wunderground v.1.15,2013-07-28 18:53:00,
2013-07-28 13:58:00,86.5,74.7,29.87,NE,51,2.0,2.0,68,0.00,,,0.00,Wunderground v.1.15,2013-07-28 18:58:00,
2013-07-28 14:03:00,86.7,74.9,29.87,NE,51,2.0,3.0,68,0.00,,,0.00,Wunderground v.1.15,2013-07-28 19:03:00,
2013-07-28 14:08:00,86.7,74.4,29.87,NNE,26,1.0,3.0,67,0.00,,,0.00,Wunderground v.1.15,2013-07-28 19:08:00,
2013-07-28 14:13:00,85.6,73.8,29.87,NE,46,2.0,3.0,68,0.00,,,0.00,Wunderground v.1.15,2013-07-28 19:13:00,
2013-07-28 14:23:00,84.7,74.7,29.87,NE,44,2.0,3.0,72,0.00,,,0.00,Wunderground v.1.15,2013-07-28 19:23:00,
2013-07-28 14:28:00,84.9,74.0,29.87,NNE,21,2.0,2.0,70,0.00,,,0.00,Wunderground v.1.15,2013-07-28 19:28:00,
2013-07-28 14:33:00,85.0,73.7,29.87,NE,51,2.0,3.0,69,0.00,,,0.00,Wunderground v.1.15,2013-07-28 19:33:00,
2013-07-28 14:38:00,85.1,75.1,29.87,NNE,13,2.0,3.0,72,0.00,,,0.00,Wunderground v.1.15,2013-07-28 19:38:00,
2013-07-28 14:43:00,84.9,74.0,29.86,NE,34,2.0,3.0,70,0.00,,,0.00,Wunderground v.1.15,2013-07-28 19:43:00,
2013-07-28 14:48:00,85.2,75.1,29.86,North,360,2.0,2.0,72,0.00,,,0.00,Wunderground v.1.15,2013-07-28 19:48:00,
2013-07-28 14:53:00,85.7,74.4,29.86,NW,321,1.0,3.0,69,0.00,,,0.00,Wunderground v.1.15,2013-07-28 19:53:00,
2013-07-28 14:58:00,86.1,74.7,29.86,ENE,61,2.0,4.0,69,0.00,,,0.00,Wunderground v.1.15,2013-07-28 19:58:00,
2013-07-28 15:03:00,86.6,74.3,29.86,NE,34,2.0,4.0,67,0.00,,,0.00,Wunderground v.1.15,2013-07-28 20:03:00,
2013-07-28 15:08:00,87.5,75.2,29.86,ENE,65,2.0,2.0,67,0.00,,,0.00,Wunderground v.1.15,2013-07-28 20:08:00,
2013-07-28 15:13:00,87.2,74.5,29.85,ENE,64,2.0,2.0,66,0.00,,,0.00,Wunderground v.1.15,2013-07-28 20:13:00,
2013-07-28 15:18:00,86.7,74.0,29.85,NE,49,2.0,2.0,66,0.00,,,0.00,Wunderground v.1.15,2013-07-28 20:18:00,
2013-07-28 15:23:00,86.7,74.4,29.85,NE,37,2.0,2.0,67,0.00,,,0.00,Wunderground v.1.15,2013-07-28 20:23:00,
2013-07-28 15:28:00,87.3,74.1,29.85,WNW,286,2.0,2.0,65,0.00,,,0.00,Wunderground v.1.15,2013-07-28 20:28:00,
2013-07-28 15:33:00,87.5,74.3,29.85,ENE,62,1.0,6.0,65,0.00,,,0.00,Wunderground v.1.15,2013-07-28 20:33:00,
2013-07-28 15:38:00,87.7,74.0,29.85,NE,51,2.0,2.0,64,0.00,,,0.00,Wunderground v.1.15,2013-07-28 20:38:00,
2013-07-28 15:43:00,87.9,73.3,29.85,NE,56,2.0,4.0,62,0.00,,,0.00,Wunderground v.1.15,2013-07-28 20:43:00,
2013-07-28 15:48:00,87.9,74.7,29.85,NE,39,2.0,6.0,65,0.00,,,0.00,Wunderground v.1.15,2013-07-28 20:48:00,
2013-07-28 15:53:00,87.9,74.2,29.85,NE,40,2.0,6.0,64,0.00,,,0.00,Wunderground v.1.15,2013-07-28 20:53:00,
2013-07-28 15:58:00,88.6,74.4,29.85,NE,46,2.0,6.0,63,0.00,,,0.00,Wunderground v.1.15,2013-07-28 20:58:00,
2013-07-28 16:03:00,88.1,73.4,29.85,NNE,26,2.0,6.0,62,0.00,,,0.00,Wunderground v.1.15,2013-07-28 21:03:00,
2013-07-28 16:08:00,87.8,73.6,29.85,North,9,3.0,6.0,63,0.00,,,0.00,Wunderground v.1.15,2013-07-28 21:08:00,
2013-07-28 16:13:00,87.9,72.8,29.85,ESE,103,3.0,6.0,61,0.00,,,0.00,Wunderground v.1.15,2013-07-28 21:13:00,
2013-07-28 16:18:00,88.5,73.8,29.85,NNE,32,2.0,6.0,62,0.00,,,0.00,Wunderground v.1.15,2013-07-28 21:18:00,
2013-07-28 16:23:00,88.7,72.0,29.85,NE,41,2.0,6.0,58,0.00,,,0.00,Wunderground v.1.15,2013-07-28 21:23:00,
2013-07-28 16:28:00,88.8,72.6,29.85,NW,316,2.0,2.0,59,0.00,,,0.00,Wunderground v.1.15,2013-07-28 21:28:00,
2013-07-28 16:33:00,89.0,72.3,29.85,NE,42,2.0,6.0,58,0.00,,,0.00,Wunderground v.1.15,2013-07-28 21:33:00,
2013-07-28 16:38:00,88.8,73.1,29.85,NE,44,2.0,6.0,60,0.00,,,0.00,Wunderground v.1.15,2013-07-28 21:38:00,
2013-07-28 16:43:00,88.4,73.2,29.85,WNW,299,2.0,6.0,61,0.00,,,0.00,Wunderground v.1.15,2013-07-28 21:43:00,
2013-07-28 16:48:00,88.0,72.9,29.85,NE,37,3.0,6.0,61,0.00,,,0.00,Wunderground v.1.15,2013-07-28 21:48:00,
2013-07-28 16:53:00,87.7,72.6,29.85,NE,37,2.0,6.0,61,0.00,,,0.00,Wunderground v.1.15,2013-07-28 21:53:00,
2013-07-28 17:03:00,87.5,72.4,29.85,NE,39,2.0,6.0,61,0.00,,,0.00,Wunderground v.1.15,2013-07-28 22:03:00,
2013-07-28 17:08:00,87.1,72.0,29.85,ENE,61,2.0,2.0,61,0.00,,,0.00,Wunderground v.1.15,2013-07-28 22:08:00,
2013-07-28 17:13:00,87.1,72.0,29.85,ENE,59,1.0,6.0,61,0.00,,,0.00,Wunderground v.1.15,2013-07-28 22:13:00,
2013-07-28 17:18:00,87.2,73.1,29.85,ENE,60,1.0,6.0,63,0.00,,,0.00,Wunderground v.1.15,2013-07-28 22:18:00,
2013-07-28 17:23:00,87.1,73.0,29.85,NE,56,2.0,6.0,63,0.00,,,0.00,Wunderground v.1.15,2013-07-28 22:23:00,
2013-07-28 17:28:00,87.1,73.0,29.85,ENE,60,2.0,6.0,63,0.00,,,0.00,Wunderground v.1.15,2013-07-28 22:28:00,
2013-07-28 17:33:00,87.1,73.4,29.85,NNE,26,2.0,6.0,64,0.00,,,0.00,Wunderground v.1.15,2013-07-28 22:33:00,
2013-07-28 17:38:00,87.2,74.0,29.85,NNE,26,2.0,2.0,65,0.00,,,0.00,Wunderground v.1.15,2013-07-28 22:38:00,
2013-07-28 17:43:00,87.0,72.9,29.85,NE,34,1.0,6.0,63,0.00,,,0.00,Wunderground v.1.15,2013-07-28 22:43:00,
2013-07-28 17:48:00,86.7,72.6,29.85,NE,40,2.0,2.0,63,0.00,,,0.00,Wunderground v.1.15,2013-07-28 22:48:00,
2013-07-28 17:53:00,86.5,73.3,29.85,NE,40,2.0,6.0,65,0.00,,,0.00,Wunderground v.1.15,2013-07-28 22:53:00,
2013-07-28 17:58:00,86.3,74.0,29.85,NE,49,1.0,6.0,67,0.00,,,0.00,Wunderground v.1.15,2013-07-28 22:58:00,
2013-07-28 18:03:00,86.4,73.7,29.85,NNE,30,2.0,6.0,66,0.00,,,0.00,Wunderground v.1.15,2013-07-28 23:03:00,
2013-07-28 18:08:00,86.6,73.4,29.85,NE,53,1.0,6.0,65,0.00,,,0.00,Wunderground v.1.15,2013-07-28 23:08:00,
2013-07-28 18:13:00,86.6,73.9,29.85,NE,51,1.0,6.0,66,0.00,,,0.00,Wunderground v.1.15,2013-07-28 23:13:00,
2013-07-28 18:18:00,86.5,73.8,29.85,NE,47,1.0,6.0,66,0.00,,,0.00,Wunderground v.1.15,2013-07-28 23:18:00,
2013-07-28 18:23:00,86.1,74.3,29.85,NE,47,1.0,6.0,68,0.00,,,0.00,Wunderground v.1.15,2013-07-28 23:23:00,
2013-07-28 18:28:00,85.6,74.3,29.85,NE,46,1.0,6.0,69,0.00,,,0.00,Wunderground v.1.15,2013-07-28 23:28:00,
2013-07-28 18:33:00,85.2,74.7,29.85,NE,47,1.0,6.0,71,0.00,,,0.00,Wunderground v.1.15,2013-07-28 23:33:00,
2013-07-28 18:38:00,85.1,74.6,29.85,NE,46,1.0,6.0,71,0.00,,,0.00,Wunderground v.1.15,2013-07-28 23:38:00,
2013-07-28 18:43:00,85.1,73.8,29.85,NE,46,1.0,6.0,69,0.00,,,0.00,Wunderground v.1.15,2013-07-28 23:43:00,
2013-07-28 18:48:00,85.1,74.2,29.85,NE,47,1.0,1.0,70,0.00,,,0.00,Wunderground v.1.15,2013-07-28 23:48:00,
2013-07-28 18:53:00,85.2,74.3,29.85,NE,47,1.0,6.0,70,0.00,,,0.00,Wunderground v.1.15,2013-07-28 23:53:00,
2013-07-28 18:58:00,85.4,75.3,29.85,NE,46,0.0,6.0,72,0.00,,,0.00,Wunderground v.1.15,2013-07-28 23:58:00,
2013-07-28 19:03:00,85.1,75.5,29.85,NE,47,0.0,6.0,73,0.00,,,0.00,Wunderground v.1.15,2013-07-29 00:03:00,
2013-07-28 19:08:00,84.6,75.4,29.85,NE,47,0.0,6.0,74,0.00,,,0.00,Wunderground v.1.15,2013-07-29 00:08:00,
2013-07-28 19:13:00,84.1,75.3,29.86,NE,47,0.0,6.0,75,0.00,,,0.00,Wunderground v.1.15,2013-07-29 00:13:00,
2013-07-28 19:18:00,83.6,74.8,29.86,NE,47,0.0,6.0,75,0.00,,,0.00,Wunderground v.1.15,2013-07-29 00:18:00,
2013-07-28 19:23:00,83.4,75.4,29.86,NE,47,0.0,6.0,77,0.00,,,0.00,Wunderground v.1.15,2013-07-29 00:23:00,
2013-07-28 19:28:00,83.1,75.5,29.86,NE,47,0.0,6.0,78,0.00,,,0.00,Wunderground v.1.15,2013-07-29 00:28:00,
2013-07-28 19:33:00,83.1,75.9,29.86,NE,47,0.0,6.0,79,0.00,,,0.00,Wunderground v.1.15,2013-07-29 00:33:00,
2013-07-28 19:38:00,83.0,75.8,29.86,NE,46,0.0,6.0,79,0.00,,,0.00,Wunderground v.1.15,2013-07-29 00:38:00,
2013-07-28 19:43:00,82.5,75.7,29.87,NE,47,0.0,6.0,80,0.00,,,0.00,Wunderground v.1.15,2013-07-29 00:43:00,
2013-07-28 19:48:00,82.1,75.7,29.87,NE,47,0.0,6.0,81,0.00,,,0.00,Wunderground v.1.15,2013-07-29 00:48:00,
2013-07-28 19:53:00,81.7,75.7,29.87,NE,47,0.0,6.0,82,0.00,,,0.00,Wunderground v.1.15,2013-07-29 00:53:00,
2013-07-28 19:58:00,81.4,75.7,29.87,NE,47,0.0,6.0,83,0.00,,,0.00,Wunderground v.1.15,2013-07-29 00:58:00,
2013-07-28 20:03:00,81.1,75.4,29.87,NE,47,0.0,6.0,83,0.00,,,0.00,Wunderground v.1.15,2013-07-29 01:03:00,
2013-07-28 20:08:00,80.8,74.8,29.87,NE,46,0.0,6.0,82,0.00,,,0.00,Wunderground v.1.15,2013-07-29 01:08:00,
2013-07-28 20:18:00,80.1,74.5,29.87,NE,47,0.0,6.0,83,0.00,,,0.00,Wunderground v.1.15,2013-07-29 01:18:00,
2013-07-28 20:23:00,79.7,74.1,29.87,NE,47,0.0,6.0,83,0.00,,,0.00,Wunderground v.1.15,2013-07-29 01:23:00,
2013-07-28 20:28:00,79.2,73.9,29.87,NE,46,0.0,6.0,84,0.00,,,0.00,Wunderground v.1.15,2013-07-29 01:28:00,
2013-07-28 20:48:00,77.9,73.4,29.87,NE,47,0.0,6.0,86,0.00,,,0.00,Wunderground v.1.15,2013-07-29 01:48:00,
2013-07-28 20:53:00,77.7,73.2,29.87,NE,47,0.0,6.0,86,0.00,,,0.00,Wunderground v.1.15,2013-07-29 01:53:00,
2013-07-28 21:03:00,77.3,73.5,29.89,NE,46,0.0,6.0,88,0.00,,,0.00,Wunderground v.1.15,2013-07-29 02:03:00,
2013-07-28 21:08:00,77.1,73.3,29.89,NE,47,0.0,6.0,88,0.00,,,0.00,Wunderground v.1.15,2013-07-29 02:08:00,
2013-07-28 21:28:00,76.4,73.2,29.89,NE,46,0.0,6.0,90,0.00,,,0.00,Wunderground v.1.15,2013-07-29 02:28:00,
2013-07-28 21:43:00,75.9,73.1,29.90,NE,47,0.0,6.0,91,0.00,,,0.00,Wunderground v.1.15,2013-07-29 02:43:00,
2013-07-28 21:48:00,75.8,73.0,29.90,NE,46,0.0,6.0,91,0.00,,,0.00,Wunderground v.1.15,2013-07-29 02:48:00,
2013-07-28 21:53:00,75.7,72.9,29.90,NE,47,0.0,6.0,91,0.00,,,0.00,Wunderground v.1.15,2013-07-29 02:53:00,
2013-07-28 21:58:00,75.7,72.9,29.90,NE,47,0.0,6.0,91,0.00,,,0.00,Wunderground v.1.15,2013-07-29 02:58:00,
2013-07-28 22:13:00,75.4,72.6,29.90,NE,47,0.0,6.0,91,0.00,,,0.00,Wunderground v.1.15,2013-07-29 03:13:00,
2013-07-28 22:18:00,75.2,72.4,29.90,NE,47,0.0,6.0,91,0.00,,,0.00,Wunderground v.1.15,2013-07-29 03:18:00,
2013-07-28 22:33:00,74.9,72.4,29.90,NE,47,1.0,6.0,92,0.00,,,0.00,Wunderground v.1.15,2013-07-29 03:33:00,
2013-07-28 22:38:00,74.8,72.3,29.90,NE,46,1.0,1.0,92,0.00,,,0.00,Wunderground v.1.15,2013-07-29 03:38:00,
2013-07-28 22:43:00,74.7,72.2,29.90,NE,47,1.0,6.0,92,0.00,,,0.00,Wunderground v.1.15,2013-07-29 03:43:00,
2013-07-28 22:53:00,74.6,72.1,29.90,NE,47,0.0,6.0,92,0.00,,,0.00,Wunderground v.1.15,2013-07-29 03:53:00,
2013-07-28 22:58:00,74.5,72.3,29.91,NE,47,0.0,6.0,93,0.00,,,0.00,Wunderground v.1.15,2013-07-29 03:58:00,
2013-07-28 23:03:00,74.4,72.2,29.91,NE,47,0.0,6.0,93,0.00,,,0.00,Wunderground v.1.15,2013-07-29 04:03:00,
2013-07-28 23:08:00,74.3,72.1,29.91,NE,47,0.0,6.0,93,0.00,,,0.00,Wunderground v.1.15,2013-07-29 04:08:00,
2013-07-28 23:13:00,74.2,72.0,29.91,NE,46,0.0,6.0,93,0.00,,,0.00,Wunderground v.1.15,2013-07-29 04:13:00,
2013-07-28 23:18:00,74.1,71.9,29.91,NE,46,0.0,6.0,93,0.00,,,0.00,Wunderground v.1.15,2013-07-29 04:18:00,
2013-07-28 23:23:00,74.0,71.8,29.91,NE,47,0.0,6.0,93,0.00,,,0.00,Wunderground v.1.15,2013-07-29 04:23:00,
2013-07-28 23:28:00,73.9,71.7,29.91,NE,47,0.0,6.0,93,0.00,,,0.00,Wunderground v.1.15,2013-07-29 04:28:00,
2013-07-28 23:33:00,73.8,71.6,29.91,NE,47,0.0,6.0,93,0.00,,,0.00,Wunderground v.1.15,2013-07-29 04:33:00,
2013-07-28 23:38:00,73.7,71.5,29.91,NE,47,0.0,6.0,93,0.00,,,0.00,Wunderground v.1.15,2013-07-29 04:38:00,
2013-07-28 23:43:00,73.7,71.5,29.91,NE,46,0.0,6.0,93,0.00,,,0.00,Wunderground v.1.15,2013-07-29 04:43:00,
2013-07-28 23:48:00,73.6,71.4,29.91,NE,47,0.0,6.0,93,0.00,,,0.00,Wunderground v.1.15,2013-07-29 04:48:00,
2013-07-28 23:53:00,73.5,71.4,29.91,NE,47,0.0,6.0,93,0.00,,,0.00,Wunderground v.1.15,2013-07-29 04:53:00,
2013-07-28 23:58:00,73.5,71.7,29.91,NE,47,0.0,6.0,94,0.00,,,0.00,Wunderground v.1.15,2013-07-29 04:58:00,